Location: Berg
(47.2344°N, 9.5296°E)
Time: 22:45:31
(UTC+00:00)

Cosmos 2344 - Pass Details

Date: 24 January 2021
Orbit: 1243 x 2999 km, 63.3° (Epoch: 03 March)

Event Time Altitude Azimuth Distance (km) Brightness Sun altitude
Rises 18:01:22 0° 318° (NW) 4,509 6.9 -18.4°
Reaches altitude 10° 18:03:58 10° 320° (NW) 3,662 6.4 -18.8°
Maximum altitude 18:13:09 77° 48° (NE) 1,893 4.3 -20.4°
Drops below altitude 10° 18:26:01 10° 135° (SE) 4,999 6.3 -22.5°
Sets 18:30:13 0° 136° (SE) 6,234 6.8 -23.3°
